Terug naar catalogus

COSMOS 86

ActiefMilitairLEO
NORAD 1584·PAYLOAD·🇷🇺 Russia

Gelanceerd Sep 18, 1965 vanaf Baikonur Cosmodrome

Loading…

Volgende Passages (komende 24 uur)

TLE

VersSource: Space-Track

Epoch: Sep 14, 2026, 06:03 UTC

1 01584U 65073A   26257.25275402 -.00000101  00000-0 -23123-4 0  9997
2 01584  56.0561 258.6700 0215280  44.4269 330.8185 12.51921374788600

Volg COSMOS 86 in realtime met AllMySat

Download on the App Store